Location: Alvediston
(51.0078°N, 2.0364°W)
Time: 07:47:59
(UTC+00:00)

Cosmos 2369 Rocket - Pass Details

Date: 27 February 2020
Orbit: 827 x 854 km, 71.0° (Epoch: 30 March)

Event Time Altitude Azimuth Distance (km) Brightness Sun altitude
Rises 18:53:24 0° 225° (SW) 3,389 6.0 -11.6°
Reaches altitude 10° 18:55:54 10° 230° (SW) 2,462 5.4 -12.0°
Maximum altitude 19:01:25 53° 307° (NW) 1,040 3.0 -12.8°
Drops below altitude 10° 19:07:01 10° 24° (NNE) 2,491 4.4 -13.7°
Sets 19:09:34 0° 29° (NNE) 3,433 5.1 -14.1°
